"Pseudo-MPEC" for P11Osz0

Created 2023 Dec 2 2:22:06 UT using Find_Orb

Click here for an explanation of pseudo-MPECs

 
 Astrometry: 
     P11Osz0* C2023 11 18ojvAstrometry!4j23DKxC]cGredacted;G'#\click%BuHA9JfYF51
     P11Osz0  C2023 11 180ru%brPblc-r;*U$+W`.9eQherehgL[kl:!djZb:V$-se%5o49UkF51
     P11Osz0  C2023 11 18yc_?nM,u/forxg#y,m4f/NexplanationC4[S`Q#OEX@xAYqj-$?F51

Station data:
(F51) Pan-STARRS 1, Haleakala  (N20.707234 W156.255910)  US/Hawaii.
   Observers J. Bulger, T. Lowe, A. Schultz, M. Willman. Measurers K.
   Chambers, S. Chastel, T. de Boer, L. Denneau, J. Fairlamb, H. Flewelling,
   M. Huber, C.-C. Lin, E. Magnier, Y. Ramanjooloo, R. Wainscoat, R. Weryk.
   1.8-m Ritchey-Chrétien + CCD.

Orbital elements:  P11Osz0
   Perihelion 2024 Sep 19.68605 +/- 335 TT = 16:27:54 (JD 2460573.18605)
Epoch 2023 Nov 18.0 TT = JDT 2460266.5   Earth MOID: 0.0528      AutoNEOCP
M 262.77426225 +/- 80               (J2000 ecliptic)
n   0.31702041 +/- 0.214            Peri.   25.90376 +/- 60
a   2.13015511 +/- 0.958            Node   170.75422 +/- 47
e   0.5239175 +/- 0.259             Incl.   24.11127 +/- 45
P   3.11                   H 18.27  G  0.15   U 11.7  SR
q 1.01412941 +/- 1.06    Q 3.24618081 +/- 31.5
From 3 observations 2023 Nov. 18 (52.9 min); mean residual 0".02
Residuals in arcseconds: 
231118 F51  .02-  .02-    231118 F51  .03+  .02+    231118 F51  .01-  .01-    

Ephemerides (geocentric):
Date (UTC) HH   RA             Dec           delta  r     elong  mag " sig PA
---- --------  ------------   ------------  ------ ------ -----  --- --------
2023 12 02 02  03 08 03.260   -15 08 19.22  1.8570 2.6715 137.9 22.6  18d  80
2023 12 02 03  03 08 00.601   -15 08 25.01  1.8571 2.6713 137.8 22.6  18d  80
2023 12 02 04  03 07 57.944   -15 08 30.77  1.8572 2.6711 137.8 22.6  18d  79
2023 12 02 05  03 07 55.288   -15 08 36.49  1.8573 2.6709 137.8 22.6  18d  79
2023 12 02 06  03 07 52.633   -15 08 42.17  1.8574 2.6708 137.7 22.6  18d  79
2023 12 02 07  03 07 49.980   -15 08 47.83  1.8575 2.6706 137.7 22.6  18d  79
2023 12 02 08  03 07 47.329   -15 08 53.44  1.8576 2.6704 137.7 22.6  18d  79
2023 12 02 09  03 07 44.679   -15 08 59.02  1.8577 2.6702 137.6 22.6  18d  79
2023 12 02 10  03 07 42.031   -15 09 04.57  1.8578 2.6700 137.6 22.6  18d  79
2023 12 02 11  03 07 39.384   -15 09 10.08  1.8579 2.6699 137.6 22.6  18d  79
2023 12 02 12  03 07 36.738   -15 09 15.56  1.8580 2.6697 137.5 22.6  18d 101
2023 12 02 13  03 07 34.094   -15 09 21.00  1.8581 2.6695 137.5 22.6  18d 101
2023 12 02 14  03 07 31.452   -15 09 26.41  1.8582 2.6693 137.5 22.6  18d 101
2023 12 02 15  03 07 28.811   -15 09 31.78  1.8583 2.6691 137.4 22.6  18d 101
2023 12 02 16  03 07 26.172   -15 09 37.11  1.8584 2.6690 137.4 22.6  18d 101
2023 12 02 17  03 07 23.534   -15 09 42.41  1.8585 2.6688 137.4 22.6  18d 101
2023 12 02 18  03 07 20.898   -15 09 47.68  1.8586 2.6686 137.3 22.6  18d 101
2023 12 02 19  03 07 18.263   -15 09 52.91  1.8587 2.6684 137.3 22.6  18d 101
2023 12 02 20  03 07 15.630   -15 09 58.11  1.8588 2.6682 137.3 22.6  18d 101
2023 12 02 21  03 07 12.998   -15 10 03.27  1.8589 2.6681 137.2 22.6  18d 101
2023 12 02 22  03 07 10.368   -15 10 08.39  1.8590 2.6679 137.2 22.6  18d 101
2023 12 02 23  03 07 07.740   -15 10 13.48  1.8591 2.6677 137.2 22.6  18d 101
2023 12 03 00  03 07 05.113   -15 10 18.54  1.8592 2.6675 137.1 22.6  18d 101
2023 12 03 01  03 07 02.487   -15 10 23.56  1.8593 2.6673 137.1 22.6  18d 101
2023 12 03 02  03 06 59.863   -15 10 28.55  1.8594 2.6672 137.1 22.6  18d 101
2023 12 03 03  03 06 57.241   -15 10 33.50  1.8595 2.6670 137.0 22.6  18d 101
2023 12 03 04  03 06 54.620   -15 10 38.41  1.8596 2.6668 137.0 22.6  18d 101
2023 12 03 05  03 06 52.001   -15 10 43.29  1.8597 2.6666 137.0 22.6  18d 101
2023 12 03 06  03 06 49.384   -15 10 48.14  1.8599 2.6664 136.9 22.6  18d 101
2023 12 03 07  03 06 46.768   -15 10 52.95  1.8600 2.6663 136.9 22.6  18d 101
2023 12 03 08  03 06 44.154   -15 10 57.72  1.8601 2.6661 136.9 22.6  18d 101
2023 12 03 09  03 06 41.541   -15 11 02.47  1.8602 2.6659 136.8 22.6  18d 101
2023 12 03 10  03 06 38.930   -15 11 07.17  1.8603 2.6657 136.8 22.6  18d 101
2023 12 03 11  03 06 36.320   -15 11 11.84  1.8604 2.6655 136.8 22.6  18d 101
2023 12 03 12  03 06 33.713   -15 11 16.48  1.8605 2.6654 136.7 22.6  18d 101
2023 12 03 13  03 06 31.106   -15 11 21.08  1.8606 2.6652 136.7 22.6  18d 101
2023 12 03 14  03 06 28.502   -15 11 25.64  1.8607 2.6650 136.7 22.6  18d 101
2023 12 03 15  03 06 25.899   -15 11 30.17  1.8608 2.6648 136.6 22.6  18d 101
2023 12 03 16  03 06 23.297   -15 11 34.67  1.8609 2.6646 136.6 22.6  18d 101
2023 12 03 17  03 06 20.698   -15 11 39.13  1.8611 2.6644 136.6 22.6  18d 101
2023 12 03 18  03 06 18.100   -15 11 43.56  1.8612 2.6643 136.5 22.6  18d 101
2023 12 03 19  03 06 15.503   -15 11 47.95  1.8613 2.6641 136.5 22.6  18d 101
2023 12 03 20  03 06 12.908   -15 11 52.30  1.8614 2.6639 136.5 22.6  18d 101
2023 12 03 21  03 06 10.315   -15 11 56.62  1.8615 2.6637 136.4 22.6  18d 101
2023 12 03 22  03 06 07.724   -15 12 00.91  1.8616 2.6635 136.4 22.6  18d 101
2023 12 03 23  03 06 05.134   -15 12 05.16  1.8617 2.6634 136.4 22.6  18d 101
2023 12 04 00  03 06 02.546   -15 12 09.38  1.8618 2.6632 136.3 22.6  18d 101
2023 12 04 01  03 05 59.959   -15 12 13.56  1.8620 2.6630 136.3 22.6  18d 101